TimeEST,TemperatureF,Dew PointF,Humidity,Sea Level PressureIn,VisibilityMPH,Wind Direction,Wind SpeedMPH,Gust SpeedMPH,PrecipitationIn,Events,Conditions,WindDirDegrees,DateUTC
12:16 AM,42.8,42.8,100,30.32,3.0,Calm,Calm,-,N/A,,Partly Cloudy,0,2013-01-25 05:16:00
12:23 AM,44.6,42.8,93,30.32,2.0,Calm,Calm,-,N/A,,Partly Cloudy,0,2013-01-25 05:23:00
12:33 AM,44.6,42.8,93,30.32,4.0,Calm,Calm,-,N/A,,Scattered Clouds,0,2013-01-25 05:33:00
12:53 AM,43.0,43.0,100,30.32,7.0,Calm,Calm,-,N/A,,Mostly Cloudy,0,2013-01-25 05:53:00
1:24 AM,44.6,42.8,93,30.31,10.0,South,3.5,-,N/A,,Overcast,190,2013-01-25 06:24:00
1:34 AM,44.6,42.8,93,30.31,1.8,Calm,Calm,-,N/A,,Overcast,0,2013-01-25 06:34:00
1:41 AM,44.6,42.8,93,30.32,3.0,Calm,Calm,-,N/A,,Overcast,0,2013-01-25 06:41:00
1:53 AM,44.1,43.0,96,30.31,6.0,Calm,Calm,-,N/A,,Overcast,0,2013-01-25 06:53:00
2:04 AM,44.6,42.8,93,30.31,1.2,Calm,Calm,-,N/A,,Overcast,0,2013-01-25 07:04:00
2:12 AM,44.6,42.8,93,30.31,0.5,Calm,Calm,-,N/A,Fog,Fog,0,2013-01-25 07:12:00
2:53 AM,44.1,43.0,96,30.29,0.2,NNE,3.5,-,N/A,Fog,Fog,30,2013-01-25 07:53:00
3:53 AM,42.1,42.1,100,30.28,0.2,Calm,Calm,-,N/A,Fog,Fog,0,2013-01-25 08:53:00
4:53 AM,43.0,43.0,100,30.29,0.2,Calm,Calm,-,N/A,Fog,Fog,0,2013-01-25 09:53:00
5:53 AM,43.0,43.0,100,30.30,0.5,Calm,Calm,-,N/A,Fog,Fog,0,2013-01-25 10:53:00
6:53 AM,44.1,44.1,100,30.32,0.2,Calm,Calm,-,N/A,Fog,Fog,0,2013-01-25 11:53:00
7:53 AM,44.1,44.1,100,30.32,0.2,Calm,Calm,-,N/A,Fog,Fog,0,2013-01-25 12:53:00
8:33 AM,46.4,46.4,100,30.33,1.8,Calm,Calm,-,N/A,,Mostly Cloudy,0,2013-01-25 13:33:00
8:35 AM,46.4,46.4,100,30.33,3.0,Calm,Calm,-,N/A,,Mostly Cloudy,0,2013-01-25 13:35:00
8:45 AM,48.2,48.2,100,30.33,3.0,Calm,Calm,-,N/A,,Scattered Clouds,0,2013-01-25 13:45:00
8:53 AM,50.0,50.0,100,30.33,5.0,Calm,Calm,-,N/A,,Partly Cloudy,0,2013-01-25 13:53:00
9:53 AM,61.0,55.0,81,30.34,10.0,Calm,Calm,-,N/A,,Clear,0,2013-01-25 14:53:00
10:53 AM,69.1,52.0,54,30.33,10.0,NE,3.5,-,N/A,,Clear,50,2013-01-25 15:53:00
11:53 AM,72.0,46.9,41,30.31,10.0,Calm,Calm,-,N/A,,Clear,0,2013-01-25 16:53:00
12:53 PM,73.0,46.0,38,30.27,10.0,Variable,4.6,-,N/A,,Partly Cloudy,0,2013-01-25 17:53:00
1:53 PM,73.9,45.0,35,30.24,10.0,SE,9.2,-,N/A,,Clear,130,2013-01-25 18:53:00
2:53 PM,75.0,45.0,34,30.22,10.0,SSW,8.1,-,N/A,,Clear,210,2013-01-25 19:53:00
3:53 PM,73.0,43.0,34,30.21,10.0,West,10.4,-,N/A,,Clear,260,2013-01-25 20:53:00
4:53 PM,70.0,42.1,36,30.22,10.0,West,9.2,-,N/A,,Clear,270,2013-01-25 21:53:00
5:53 PM,66.0,45.0,47,30.23,10.0,West,5.8,-,N/A,,Clear,260,2013-01-25 22:53:00
6:53 PM,57.9,46.9,67,30.24,10.0,NW,3.5,-,N/A,,Clear,310,2013-01-25 23:53:00
7:53 PM,55.0,48.0,77,30.25,10.0,Calm,Calm,-,N/A,,Clear,0,2013-01-26 00:53:00
8:53 PM,48.9,45.0,86,30.24,10.0,Calm,Calm,-,N/A,,Clear,0,2013-01-26 01:53:00
9:53 PM,46.9,45.0,93,30.24,10.0,Calm,Calm,-,N/A,,Clear,0,2013-01-26 02:53:00
10:53 PM,43.0,41.0,93,30.25,7.0,Calm,Calm,-,N/A,,Clear,0,2013-01-26 03:53:00
11:53 PM,43.0,41.0,93,30.26,6.0,Calm,Calm,-,N/A,,Mist,0,2013-01-26 04:53:00